Regional Weather Roundup
Issued by NWS Sioux Falls, SD

Home | Current Version | Previous Version | Text Only | Print | Product List | Glossary On
Versions: 1 2 3 4 5 6 7 8 9 10 11 12 13 14 15 16 17 18 19 20 21 22 23 24 25 26 27 28 29 30 31 32 33 34 35 36 37 38 39 40 41 42 43 44 45 46 47 48 49 50
000
ASUS43 KFSD 301102
RWRFSD

WEATHER ROUNDUP FOR SE SOUTH DAKOTA/SW MINNESOTA/NW IOWA
NATIONAL WEATHER SERVICE SIOUX FALLS SD
600 AM CDT SUN APR 30 2017

NOTE: "FAIR" INDICATES FEW OR NO CLOUDS BELOW 12,000 FEET WITH NO
SIGNIFICANT WEATHER AND OR OBSTRUCTIONS TO VISIBILITY.


SDZ038>040-050-052>070-301200-
SOUTHEAST SOUTH DAKOTA

CITY           SKY/WX    TMP DP  RH WIND       PRES   REMARKS
BROOKINGS      MOCLDY    40  25  55 NE9       30.02F
CHAMBERLAIN    CLOUDY    42  27  55 N10       30.03F
HURON          CLOUDY    39  27  62 N10       30.05F
MADISON        FAIR      39  27  60 NE9       30.01F
MITCHELL       MOCLDY    40  29  64 N8        30.03F
SIOUX FALLS    CLOUDY    44  29  55 NE13      29.99F
WINNER         FAIR      32  25  75 NW7       30.04F WCI  26
YANKTON        CLOUDY    45  28  53 E14       29.97F
$$

MNZ071-072-080-081-089-090-097-098-301200-
SOUTHWEST MINNESOTA

CITY           SKY/WX    TMP DP  RH WIND       PRES   REMARKS
FAIRMONT       RAIN      41  35  79 NE12      29.99F
JACKSON        LGT RAIN  39  32  75 NE13G21   29.99F
LUVERNE        CLOUDY    41  27  56 NE8       30.00S
MARSHALL       CLOUDY    42  27  55 NE14      30.02F
MONTEVIDEO     CLOUDY    41  28  60 E8        30.07F
PIPESTONE      MOCLDY    43  25  49 E10G17    29.99F
REDWOOD FALLS  CLOUDY    43  26  51 NE5       30.04F
TRACY          MOCLDY    42  30  62 NE12      30.01F
WINDOM         CLOUDY    43  28  56 NE15      30.00F
WORTHINGTON    CLOUDY    41  28  60 NE15      29.99F
$$

IAZ001>003-012>014-020>022-031-032-NEZ013-014-SDZ071-301200-
NORTHWEST IOWA

CITY           SKY/WX    TMP DP  RH WIND       PRES   REMARKS
CHEROKEE       DRIZZLE   38  37  97 NE6       29.94F
DENISON        CLOUDY    37  37 100 NE17G28   29.87F FOG
ESTHERVILLE    LGT RAIN  39  36  89 NE16      29.97F
ORANGE CITY    LGT RAIN  39  37  93 NE8       29.95F
SHELDON        LGT RAIN  39  36  87 NE10      29.96S
SIOUX CITY     LGT RAIN  39  37  92 NE15G24   29.93F
SPENCER        LGT RAIN  40  36  86 NE18      29.96F
STORM LAKE     CLOUDY    37  36  93 NE23G33   29.91F
$$

ABBREVIATIONS USED IN REMARKS
   TC - TEMPERATURE IN CELSIUS
  WCI - WIND CHILL INDEX
   HX - HEAT INDEX
  VSB - VISIBILITY





USA.gov is the U.S. government's official web portal to all federal, state and local government web resources and services.